DIRECTV 10

Last updated on Fri Oct 11 2024 00:02:38 GMT+0000 (Coordinated Universal Time)

1 31862U 07032A 24284.38288023 -.00000098 00000+0 00000+0 0 9992 2 31862 0.0167 29.0392 0000492 166.1335 219.3787 1.00270384 39421
UTC large
Height (km)
Speed (km/s)
/
Latitude / Longitude
Inclination (degrees)
Orbital Period (minutes)
Azimuth
Elevation
Range (km)
Doppler Factor

Next 0 passes for location: London (51.5072 / 0.1276)

Sorry there are no passes over London.